Weather History for KTRK - January, 2014

Change the Weather History Date:

Thursday, January 2, 2014

  Actual Average Record
Temperature  
Mean Temperature 34 °F -  
Max Temperature 53 °F 36 °F 57 °F (2012)
Min Temperature 14 °F 11 °F -12 °F (1952)
Degree Days  
Heating Degree Days 32    
Moisture  
Dew Point 21 °F    
Average Humidity 79    
Maximum Humidity 100    
Minimum Humidity 28    
Precipitation  
Precipitation 0.00 in - - ()
Sea Level Pressure  
Sea Level Pressure 30.26 in    
Wind  
Wind Speed 0 mph (SE)    
Max Wind Speed 4 mph    
Max Gust Speed -    
Visibility 10 miles    
Events      
Averages and records for this station are not official NWS values.
T = Trace of Precipitation, MM = Missing Value Source: NWS Daily Summary

Daily Weather History Graph

Daily Weather History Graph

Search for Another Location

Airport or City:

Trip Planner

Search our weather history database for the weather conditions in past years. The results will help you decide how hot, cold, wet, or windy it might be!

Date:

Astronomy

Jan. 02, 2014 Rise Set
Actual Time 7:20 AM PST 4:49 PM PST
Civil Twilight 6:50 AM PST 5:19 PM PST
Nautical Twilight 6:17 AM PST 5:52 PM PST
Astronomical Twilight 5:44 AM PST 6:25 PM PST
Moon 8:06 AM PST (1/2) 6:51 PM PST (1/2)
Length of Visible Light 10h 28m
Length of Day
9h 28m
Waxing Crescent, 3% of the Moon is Illuminated
Jan 2
Waxing Crescent
Jan 7
First Quarter
Jan 15
Full
Jan 23
Last Quarter
Jan 30
New

Hourly Weather History & Observations

Time (PST) Temp. Windchill Dew Point Humidity Pressure Visibility Wind Dir Wind Speed Gust Speed Precip Events Conditions
12:15 AM 21.2 °F - 19.4 °F 93% 30.31 in 10.0 mi Calm Calm - N/A   Clear
12:35 AM 23.0 °F - 21.2 °F 93% 30.31 in 10.0 mi Calm Calm - N/A   Clear
12:55 AM 21.2 °F - 19.4 °F 93% 30.31 in 10.0 mi Calm Calm - N/A   Clear
1:15 AM 19.4 °F - 15.8 °F 86% 30.31 in 10.0 mi Calm Calm - N/A   Clear
1:35 AM 21.2 °F - 19.4 °F 93% 30.31 in 10.0 mi Calm Calm - N/A   Clear
1:55 AM 23.0 °F - 21.2 °F 93% 30.31 in 10.0 mi Calm Calm - N/A   Clear
2:15 AM 21.2 °F - 19.4 °F 93% 30.31 in 10.0 mi Calm Calm - N/A   Clear
2:35 AM 19.4 °F - 17.6 °F 93% 30.31 in 10.0 mi Calm Calm - N/A   Clear
2:55 AM 21.2 °F - 19.4 °F 93% 30.31 in 10.0 mi Calm Calm - N/A   Clear
3:15 AM 17.6 °F - 15.8 °F 93% 30.31 in 10.0 mi Calm Calm - N/A   Clear
3:35 AM 17.6 °F - 15.8 °F 93% 30.30 in 10.0 mi Calm Calm - N/A   Clear
3:55 AM 19.4 °F - 17.6 °F 93% 30.29 in 10.0 mi Calm Calm - N/A   Clear
4:15 AM 17.6 °F - 14.0 °F 86% 30.30 in 10.0 mi Calm Calm - N/A   Clear
4:35 AM 14.0 °F - 12.2 °F 93% 30.30 in 10.0 mi Calm Calm - N/A   Clear
4:55 AM 17.6 °F - 17.6 °F 100% 30.31 in 10.0 mi Calm Calm - N/A   Clear
5:15 AM 19.4 °F - 17.6 °F 93% 30.30 in 10.0 mi Calm Calm - N/A   Clear
5:35 AM 17.6 °F - 15.8 °F 93% 30.30 in 10.0 mi Calm Calm - N/A   Clear
6:55 AM 15.8 °F - 14.0 °F 93% 30.30 in 10.0 mi Calm Calm - N/A   Clear
7:55 AM 15.8 °F - 14.0 °F 93% 30.31 in 10.0 mi Calm Calm - N/A   Clear
8:50 AM 21.2 °F - 19.4 °F 93% 30.32 in 10.0 mi Calm Calm - N/A   Clear
9:55 AM 28.4 °F - 23.0 °F 80% 30.32 in 10.0 mi Calm Calm - N/A   Clear
10:50 AM 35.6 °F - 24.8 °F 65% 30.31 in 10.0 mi Calm Calm - N/A   Clear
11:45 AM 39.2 °F - 24.8 °F 56% 30.27 in 10.0 mi Calm Calm - N/A   Clear
12:50 PM 44.6 °F - 26.6 °F 49% 30.23 in 10.0 mi Calm Calm - N/A   Clear
1:55 PM 51.8 °F - 28.4 °F 41% 30.21 in 10.0 mi Calm Calm - N/A   Clear
2:55 PM 53.6 °F - 23.0 °F 30% 30.20 in 10.0 mi Calm Calm - N/A   Clear
3:50 PM 53.6 °F - 21.2 °F 28% 30.20 in 10.0 mi Calm Calm - N/A   Scattered Clouds
4:55 PM 42.8 °F - 24.8 °F 49% 30.21 in 10.0 mi Calm Calm - N/A   Clear
5:15 PM 35.6 °F - 23.0 °F 60% 30.22 in 10.0 mi Calm Calm - N/A   Clear
5:35 PM 35.6 °F - 26.6 °F 70% 30.22 in 10.0 mi Calm Calm - N/A   Clear
5:55 PM 33.8 °F - 26.6 °F 75% 30.22 in 10.0 mi Calm Calm - N/A   Clear
6:15 PM 32.0 °F - 26.6 °F 80% 30.22 in 10.0 mi Calm Calm - N/A   Clear
6:35 PM 33.8 °F - 24.8 °F 70% 30.22 in 10.0 mi Calm Calm - N/A   Clear
6:55 PM 33.8 °F - 24.8 °F 70% 30.23 in 10.0 mi Calm Calm - N/A   Clear
7:15 PM 32.0 °F 28.7 °F 24.8 °F 75% 30.23 in 10.0 mi SE 3.5 mph - N/A   Clear
7:35 PM 30.2 °F - 23.0 °F 75% 30.23 in 10.0 mi Calm Calm - N/A   Clear
7:55 PM 30.2 °F - 23.0 °F 75% 30.23 in 10.0 mi Calm Calm - N/A   Clear
8:15 PM 32.0 °F - 23.0 °F 69% 30.23 in 10.0 mi Calm Calm - N/A   Clear
8:35 PM 28.4 °F - 23.0 °F 80% 30.23 in 10.0 mi Calm Calm - N/A   Clear
8:55 PM 26.6 °F - 23.0 °F 86% 30.23 in 10.0 mi Calm Calm - N/A   Clear
9:15 PM 28.4 °F - 23.0 °F 80% 30.22 in 10.0 mi Calm Calm - N/A   Clear
9:35 PM 26.6 °F - 23.0 °F 86% 30.22 in 10.0 mi Calm Calm - N/A   Clear
9:55 PM 28.4 °F - 23.0 °F 80% 30.22 in 10.0 mi Calm Calm - N/A   Clear
10:15 PM 26.6 °F - 23.0 °F 86% 30.23 in 10.0 mi Calm Calm - N/A   Clear
10:35 PM 24.8 °F - 21.2 °F 86% 30.23 in 10.0 mi Calm Calm - N/A   Clear
10:55 PM 26.6 °F - 23.0 °F 86% 30.23 in 10.0 mi Calm Calm - N/A   Clear
11:15 PM 23.0 °F - 21.2 °F 93% 30.23 in 10.0 mi Calm Calm - N/A   Clear
11:35 PM 26.6 °F - 21.2 °F 80% 30.22 in 10.0 mi Calm Calm - N/A   Clear
11:55 PM 26.6 °F - 21.2 °F 80% 30.21 in 10.0 mi Calm Calm - N/A   Clear